Regional Weather Roundup
Issued by NWS

Home | Current Version | Previous Version | Text Only | Print | Product List | Glossary Off
Versions: 1 2 3 4 5 6 7 8 9 10 11 12 13 14 15 16 17 18 19 20 21 22 23 24 25 26 27 28 29 30 31 32 33 34 35 36 37 38 39 40 41 42 43 44 45 46 47 48 49 50

000
ASUS43 KMKX 291911
RWRWI

WISCONSIN REGIONAL WEATHER ROUNDUP
NATIONAL WEATHER SERVICE MILWAUKEE/SULLIVAN WI
200 PM CDT SAT AUG 29 2015

NOTE: "FAIR" INDICATES FEW OR NO CLOUDS BELOW 12,000 FEET WITH NO
SIGNIFICANT WEATHER AND/OR OBSTRUCTIONS TO VISIBILITY.

WIZ001-002-006>008-014>016-023>028-292000-
NORTHWEST WISCONSIN

CITY           SKY/WX    TMP DP  RH WIND       PRES   REMARKS
SUPERIOR ARPT  CLOUDY    72  62  71 W3        30.02S
ASHLAND        CLOUDY    76  64  66 VRB5      30.03F
HAYWARD        MOSUNNY   73  60  63 S8        30.05S
SIREN          SUNNY     74  60  61 W6        30.05S
CUMBERLAND     SUNNY     70  59  68 SW5       30.06F
RICE LAKE      MOSUNNY   72  61  68 CALM      30.07S
CHETEK         MOSUNNY  N/A N/A N/A CALM      30.06S
LADYSMITH      SUNNY     73  62  68 SW5       30.08S
EAU CLAIRE     CLOUDY    66  59  78 CALM      30.07S
MENOMONIE      CLOUDY    68  61  77 SE5       30.07S
NEW RICHMOND   SUNNY     69  60  72 CALM      30.07S
OSCEOLA        MOSUNNY   71  65  80 SW7       30.08F
$$

WIZ003>005-009-010-017-018-292000-
NORTH CENTRAL WISCONSIN

CITY           SKY/WX    TMP DP  RH WIND       PRES   REMARKS
MANITOWISH WTR MOSUNNY   74  58  56 S3        30.06S
ARBOR VITAE    SUNNY     75  63  64 S7        30.06S
WOODRUFF       SUNNY     75  63  64 S7        30.06S
RHINELANDER    MOSUNNY   70  58  65 SW6       30.08F
EAGLE RIVER    PTSUNNY   73  55  52 CALM      30.06S
LAND O LAKES   MOSUNNY   76  56  50 SE3       30.06F
PHILLIPS       SUNNY     73  61  65 SW5       30.06S
TOMAHAWK       MOSUNNY   68  59  72 SE3       30.08F
MEDFORD        CLOUDY    65  60  81 CALM      30.08S
MERRILL        CLOUDY    66  60  81 CALM      30.09S
$$

WIZ029-030-035-036-043>047-292000-
CENTRAL WISCONSIN

CITY           SKY/WX    TMP DP  RH WIND       PRES   REMARKS
WAUSAU         CLOUDY    65  59  81 CALM      30.06S
MOSINEE        CLOUDY    63  61  94 CALM      30.09S
MARSHFIELD     CLOUDY    66  58  75 E6        30.08S
STEVENS POINT  CLOUDY    62  59  89 E6        30.08S
WAUPACA        CLOUDY    69  63  80 N3        30.06F
WAUTOMA        CLOUDY    68  63  84 E5        30.06S
WISC RAPIDS    NOT AVBL
CAMP DOUGLAS   CLOUDY    68  68 100 NE2       30.05S
$$

WIZ011>013-019>022-031-037>040-048>050-292000-
NORTHEAST WISCONSIN

CITY           SKY/WX    TMP DP  RH WIND       PRES   REMARKS
ANTIGO         CLOUDY    66  60  79 S3        30.09S
SHAWANO        CLOUDY    68  61  77 NE3       30.07F
OCONTO         CLOUDY    65  64  96 S5        30.07S
STURGEON BAY   CLOUDY    66  61  82 S10       30.09S
GREEN BAY      CLOUDY    71  62  73 CALM      30.06F
MANITOWOC      CLOUDY    67  61  81 MISG      30.07S
APPLETON       CLOUDY    68  59  73 CALM      30.05F
CLINTONVILLE   CLOUDY    64  61  88 CALM      30.07S
OSHKOSH        CLOUDY    67  61  81 E5        30.05S
$$

WIZ032>034-041-042-053>061-292000-
SOUTHWEST WISCONSIN

CITY           SKY/WX    TMP DP  RH WIND       PRES   REMARKS
LA CROSSE      CLOUDY    71  62  73 NW3       30.04F
SPARTA         CLOUDY    69  59  69 NE3       30.06F
VIROQUA        CLOUDY    68  62  79 CALM      30.06S
BOSCOBEL       CLOUDY    71  63  75 E5        30.04R
PRAIRIE DU CHI CLOUDY    70  60  71 N5        30.03S
PLATTEVILLE    CLOUDY    71  65  83 N7        30.03R
$$

WIZ056-057-062-063-064-067-068-292000-
SOUTH CENTRAL WISCONSIN

CITY           SKY/WX    TMP DP  RH WIND       PRES   REMARKS
REEDSBURG      CLOUDY    67  62  84 NE6       30.05R
BARABOO/DELLS  CLOUDY    67  61  81 NE6       30.05S
LONE ROCK      CLOUDY    69  62  78 N5        30.04S
MINERAL POINT  CLOUDY    70  64  83 N6        30.04R
MADISON        CLOUDY    67  63  87 E5        30.03S
MIDDLETON      CLOUDY    68  65  92 CALM      30.04S
WATERTOWN      CLOUDY    64  64 100 CALM      30.04S FOG
MONROE         CLOUDY    68  64  88 CALM      30.03R
JANESVILLE     NOT AVBL
$$

WIZ051-052-058>065-066-070>072-292000-
SOUTHEAST WISCONSIN

CITY           SKY/WX    TMP DP  RH WIND       PRES   REMARKS
MILWAUKEE      CLOUDY    63  60  90 NE6       30.04S FOG
WAUKESHA       CLOUDY    63  61  94 CALM      30.06R FOG
MILWAUKEE/TIMM CLOUDY    63  61  94 CALM      30.06R FOG
RACINE         CLOUDY    64  61  90 E7        30.05S FOG
BURLINGTON     CLOUDY    65  62  91 CALM      30.03S
KENOSHA        CLOUDY    66  64  93 E6        30.03S FOG
FOND DU LAC    CLOUDY    69  62  78 CALM      30.05F
SHEBOYGAN      CLOUDY    67  62  84 S6        30.06F
WEST BEND      CLOUDY    63  61  94 CALM      30.06S FOG
JUNEAU         CLOUDY    65  62  90 E5        30.06S
$$

LSZ147-162-292000-
LAKE SUPERIOR

STATION/POSITION TIME  TEMP    WIND        PRES    WAVE
                       AIR SEA DIR/SP/G            HT/PER
                 (UTC) (F)     (DEG/KT/KT) (MB)    (FT/S)
W MID LAKE BUOY  1850   58 54  220/ 12/ 14 1016.1F   2/ 5
DEVILS ISLAND    1900   62     220/ 10/ 13 1016.4F
PORT WING        1840   67     250/  4/  6 1016.9F
SAXON HARBOR     1800   71     300/  2/  6 1016.6F
$$

LMZ867-665-643>646-292000-
LAKE MICHIGAN

STATION/POSITION TIME  TEMP    WIND        PRES    WAVE
                       AIR SEA DIR/SP/G            HT/PER
                 (UTC) (F)     (DEG/KT/KT) (MB)    (FT/S)
CHAMBERS ISLAND  1800   63     250/  5/  9 1018.3F
S GREEN BAY BUOY 1700   62 62  310/  2/  2 1020.0F
N MID LAKE BUOY  1850   63 65  210/  6/  8 1018.2R   1
NORTHPORT PIER   1800   63     140/  9/ 13 1018.3F
SISTER BAY       1804   69     190/ 13/ 15   N/A
ALGOMA LAKESHORE 1814             CALM       N/A
SHEBOYGAN LAKESH 1900   60     150/  8/  8 1018.2F
PORT WASHINGTON  1840   57      30/  2/  3 1018.6S
ATWATER BUOY     1900   51 48  340/  8/ 10 1018.8F
MILWAUKEE LAKESH 1800   58      20/  3/  4   N/A
S MID LAKE BUOY  1850   67 68  120/ 14/ 14 1016.6F
KENOSHA   LAKESH 1900   59      60/  1/  4 1016.6S
$$

TC  - TEMPERATURE IN CELSIUS
VSB - VISIBILITY IN STATUTE MILES
WCI - WIND CHILL INDEX
HX  - HEAT INDEX




USA.gov is the U.S. government's official web portal to all federal, state and local government web resources and services.